{"data":{"norad_id":53083,"epoch":"2026-05-25T01:09:15.141888Z","epoch_age_seconds":64905,"freshness":"FRESH","line1":"1 53083U 22077AS  26145.04809192 -.00000029  00000+0  20317-5 0  9997","line2":"2 53083  97.4484 326.0597 0001312  88.5926 271.5452 15.05653872212478","mean_motion":15.05653872,"eccentricity":0.0001312,"inclination_deg":97.4484,"raan_deg":326.0597,"arg_perigee_deg":88.5926,"mean_anomaly_deg":271.5452,"bstar":2.0317e-6,"rev_number":21247,"period_min":95.639510964576,"perigee_km":548.59037120889,"apogee_km":550.40818296799,"semimajor_km":6927.6362770884,"source":"CELESTRAK","updated_at":"2026-05-25T13:38:17.314398Z"}}